01566 16.9 0.15 K096I 269.67365 31.32988 88.05418 22.83892 0.8269527 0.88074423 1.0778778 0 E2009-Q37 697 14 1949-2009 1.21 M-v 3Eh MPC 8003 (1566) Icarus 20090723 60744 15.3 0.15 K096I 96.61857 231.56713 107.01566 7.61243 0.2381190 0.28096349 2.3087104 0 MPO117877 241 7 1993-2007 0.51 M-v 38h MPC 0000 (60744) 2000 GB93 20070317 60857 15.7 0.15 K096I 194.28604 310.39281 138.24993 14.01566 0.1429775 0.23534138 2.5981877 0 MPO135509 159 9 1995-2008 0.54 M-v 38h MPC 0000 (60857) 2000 HD68 20080229 96635 15.1 0.15 K096I 221.47824 195.97622 68.38294 7.24255 0.1101566 0.26569048 2.3963600 0 MPO150825 208 8 1999-2008 0.55 M-v 38h MPC 0000 (96635) 1999 GR4 20081230 B0076 16.1 0.15 K096I 269.35205 114.45989 279.01566 1.84578 0.1173474 0.22937975 2.6430132 0 MPO137897 119 6 2001-2008 0.56 M-v 38h MPC 0000 (110076) 2001 SW113 20080330 D5243 14.8 0.15 K096I 157.01566 257.28909 112.25472 2.42596 0.1961881 0.18532443 3.0468256 0 MPO155895 106 7 2001-2009 0.53 M-v 38h MPC 0000 (135243) 2001 ST17 20090303 D8639 15.3 0.15 K096I 149.73422 118.33334 316.53094 15.62395 0.2274902 0.17797335 3.1301566 1 MPO105229 98 4 2000-2006 0.51 M-v 38h MPC 0000 (138639) 2000 RH24 20061120 F3784 16.6 0.15 K096I 346.01566 19.49711 353.57543 4.52365 0.1755971 0.24455112 2.5325398 2 MPO116872 131 5 1999-2007 0.48 M-v 38h MPC 0000 (153784) 2001 VY60 20070325 G2219 16.0 0.15 K096I 92.01566 220.26872 199.40336 5.17113 0.2541925 0.23323698 2.6137925 1 MPO122993 165 5 1999-2007 0.58 M-v 38h MPC 0000 (162219) 1999 TS63 20070920 H7644 14.6 0.15 K096I 355.51864 294.86756 338.01566 23.98794 0.2768559 0.17354818 3.1831419 1 MPO159060 97 4 1998-2008 0.54 M-v 38h MPC 0000 (177644) 2004 PN88 20080326 K0015 15.6 0.15 K096I 120.05564 187.94666 114.01566 4.59615 0.1749448 0.17697704 3.1418933 0 MPO145792 37 4 2002-2008 0.34 M-v 38h MPC 0000 (200015) 2007 MN5 20081028 L7618 16.0 0.15 K096I 119.89437 121.36999 203.68841 6.14295 0.0611179 0.20376019 2.8601566 0 MPO159369 48 4 2003-2008 0.39 M-v 38h MPC 0000 (217618) 2008 VA19 20081201 K00W13J 16.4 0.15 K096I 40.65798 141.03653 245.89640 32.67375 0.2782555 0.23601566 2.5932367 3 MPO 72226 28 2 2000-2004 0.46 M-v 38h MPC 0000 2000 WJ13 20041103 K02CV0L 17.5 0.15 K096I 261.64800 214.71838 319.33831 12.45907 0.1978414 0.23701566 2.5859375 3 MPO102081 35 2 2002-2006 0.43 M-v 38h MPC 0000 2002 CL310 20060303 K02X46P 15.4 0.15 K096I 265.14136 200.01566 183.83112 4.59025 0.2108195 0.24627393 2.5207151 3 MPO139179 143 7 1990-2008 0.51 M-v 38h MPC 0000 2002 XP46 20080428 K03Q20U 17.9 0.15 K096I 228.94179 320.82577 17.79441 2.90633 0.2401566 0.27611208 2.3356752 2 MPO131848 53 3 2003-2007 0.43 M-v 38h MPC 0000 2003 QU20 20071228 K04X26X 17.9 0.15 K096I 134.01566 134.67883 265.11883 4.86977 0.1246275 0.28088916 2.3091177 4 MPO126717 36 2 2004-2007 0.36 M-v 38h MPC 0000 2004 XX26 20071007 K05N75Z 16.5 0.15 K096I 180.49810 256.21297 120.92934 11.01566 0.0809688 0.17641961 3.1485081 2 MPO158504 27 3 2003-2008 0.30 M-v 38h MPC 0000 2005 NZ75 20080224 K05T96E 16.7 0.15 K096I 6.83451 356.01566 274.48334 2.26263 0.0840700 0.19029161 2.9935714 1 MPO134899 29 4 2003-2008 0.46 M-v 38h MPC 0000 2005 TE96 20080301 K06B36Y 15.5 0.15 K096I 333.17199 34.01566 344.94160 8.92845 0.1236650 0.18056248 3.1001619 3 MPO103841 34 3 1998-2006 0.42 M-v 38h MPC 0000 2006 BY36 20060525 K06WJ8G 17.7 0.15 K096I 292.01566 312.83563 91.14727 3.65121 0.1879177 0.27026976 2.3692147 4 MPO120502 32 2 2002-2007 0.40 M-v 38h MPC 0000 2006 WG198 20070125 K07L18S 15.7 0.15 K096I 189.48197 61.63821 132.01566 16.40714 0.1872788 0.20372938 2.8604450 4 MPO122892 35 2 2002-2007 0.40 M-v 38h MPC 0000 2007 LS18 20070619 K08S06M 16.9 0.15 K096I 55.45279 233.85011 133.89017 6.37224 0.1812854 0.21261808 2.7801566 2 MPO155506 40 5 1995-2008 0.57 M-v 38h MPC 0000 2008 SM6 20081027 K09D41S 17.2 0.15 K096I 55.01566 208.96875 273.73250 0.52077 0.1401111 0.25829311 2.4418979 2 MPO158952 65 6 1994-2009 0.61 M-v 38h MPC 0000 2009 DS41 20090514 K07RT5Z 17.5 0.15 K07A7 329.94603 224.01566 202.15037 13.93862 0.2736441 0.17506289 3.1647542 MPO140714 13 1 45 days 0.39 MPC 2000 2007 RZ295 20071030 K07Y52T 17.1 0.15 K07CQ 333.60952 220.91629 288.01566 31.72011 0.2531421 0.23167721 2.6255110 MPO133561 29 1 48 days 0.57 MPC 2000 2007 YT52 20080201